Location: Bukit Lungun
(2.6833°N, 113.9667°E)
Time: 13:40:25
(UTC+00:00)

Milstar 3 - Pass Details

Date: 02 March 2021
Orbit: 1089 x 5155 km, 28.3° (Epoch: 07 April)

Event Time Altitude Azimuth Distance (km) Brightness Sun altitude
Rises 12:17:30 0° 299° (WNW) 6,622 7.6 -25.4°
Reaches altitude 10° 12:22:34 10° 299° (WNW) 5,000 6.8 -26.7°
Maximum altitude 12:34:46 86° 211° (SSW) 1,481 3.3 -29.7°
Enters shadow 12:36:43 57° 128° (SE) 1,571 3.2 -30.2°
